Culdrose, United Kingdom

3:38 PM GMT on February 20, 2017 (GMT +0000)
Culdrose

Weather History for EGDR - October, 2011

Change the Weather History Date:

Sunday, October 30, 2011

  Actual Average Record
Temperature  
Mean Temperature 58 °F -  
Max Temperature 59 °F 51 °F 60 °F (2005)
Min Temperature 56 °F 43 °F 39 °F (2008)
Degree Days  
Heating Degree Days 8    
Growing Degree Days 8 (Base 50)    
Moisture  
Dew Point 57 °F    
Average Humidity 100    
Maximum Humidity 100    
Minimum Humidity 94    
Precipitation  
Precipitation 0.16 in - - ()
Sea Level Pressure  
Sea Level Pressure 30.01 in    
Wind  
Wind Speed 13 mph ()    
Max Wind Speed 21 mph    
Max Gust Speed 29 mph    
Visibility 0.6 miles    
Events Fog , Rain    
Averages and records for this station are not official NWS values.
T = Trace of Precipitation, MM = Missing Value Source: Averaged Metar Reports

Daily Weather History Graph

Daily Weather History Graph

Search for Another Location

Airport or City:

Trip Planner

Search our weather history database for the weather conditions in past years. The results will help you decide how hot, cold, wet, or windy it might be!

Date:

Astronomy

Oct. 30, 2011 Rise Set
Actual Time 7:06 AM GMT 5:01 PM GMT
Civil Twilight 6:32 AM GMT 5:35 PM GMT
Nautical Twilight 5:54 AM GMT 6:13 PM GMT
Astronomical Twilight 5:17 AM GMT 6:51 PM GMT
Moon 11:32 AM GMT (10/30) 7:56 PM GMT (10/30)
Length of Visible Light 11h 02m
Length of Day
9h 55m
Waxing Crescent, 18% of the Moon is Illuminated
Oct 30
Waxing Crescent
Nov 2
First Quarter
Nov 10
Full
Nov 18
Last Quarter
Nov 25
New

Hourly Weather History & Observations

Time (GMT) Temp. Dew Point Humidity Pressure Visibility Wind Dir Wind Speed Gust Speed Precip Events Conditions
12:50 AM 57 °F 57 °F 100% 30.04 in 0 mi SSW 15.0 mph - - Rain Light Drizzle
12:50 AM 57.2 °F 57.2 °F 100% 30.04 in 0.3 mi SSW 15.0 mph - N/A   Light Drizzle
1:50 AM 57.2 °F 57.2 °F 100% 30.04 in 1.9 mi SSW 15.0 mph 26.5 mph N/A   Light Drizzle
1:50 AM 57.2 °F 57.2 °F 100% 30.01 in 2.5 mi SSW 15.0 mph - N/A   Light Drizzle
2:50 AM 57 °F 57 °F 99% 30.02 in 2 mi SSW 15.0 mph - - Rain Light Drizzle
2:50 AM 57.2 °F 57.2 °F 100% 30.01 in 1.6 mi SSW 15.0 mph 28.8 mph N/A   Light Drizzle
3:50 AM 57.2 °F 57.2 °F 100% 30.01 in 0.2 mi SW 16.1 mph - N/A   Light Drizzle
4:50 AM 57.2 °F 57.2 °F 100% 30.01 in 0.2 mi SW 15.0 mph 26.5 mph N/A   Light Drizzle
5:50 AM 57 °F 57 °F 100% 30.02 in 0 mi SW 16.1 mph - - Rain Light Rain
5:50 AM 57.2 °F 57.2 °F 100% 30.01 in 0.2 mi SW 16.1 mph - N/A Rain Light Rain
6:50 AM 57.2 °F 57.2 °F 100% 30.04 in 0.2 mi WSW 11.5 mph - N/A   Light Drizzle
7:50 AM 57.2 °F 57.2 °F 100% 30.04 in 2.5 mi WSW 15.0 mph - N/A   Overcast
8:50 AM 57 °F 57 °F 99% 30.06 in 1 mi SW 15.0 mph - -   Mist
8:50 AM 57.2 °F 57.2 °F 100% 30.04 in 0.7 mi SW 15.0 mph - N/A   Overcast
9:50 AM 57.2 °F 57.2 °F 100% 30.06 in 0.4 mi SW 11.5 mph - N/A Fog Fog
10:50 AM 57.2 °F 57.2 °F 100% 30.06 in 0.1 mi SSW 9.2 mph - N/A Fog Fog
11:50 AM 58 °F 58 °F 100% 30.05 in 2 mi SSW 11.5 mph - - Fog Light Fog
11:50 AM 59.0 °F 57.2 °F 94% 30.04 in 1.9 mi SSW 11.5 mph - N/A   Overcast
12:50 PM 59.0 °F 59.0 °F 100% 30.04 in 2.2 mi SSW 11.5 mph - N/A   Mostly Cloudy
1:50 PM 57.2 °F 57.2 °F 100% 30.01 in 0.0 mi SSW 11.5 mph - N/A Fog Fog
2:50 PM 57 °F 57 °F 100% 30.01 in 0 mi SSW 11.5 mph - - Fog Heavy Fog
2:50 PM 57.2 °F 57.2 °F 100% 30.01 in 0.0 mi SSW 11.5 mph - N/A Fog Fog
3:50 PM 57.2 °F 57.2 °F 100% 30.01 in 0.0 mi SSW 13.8 mph - N/A   Light Drizzle
4:50 PM 57.2 °F 57.2 °F 100% 29.98 in 0.1 mi SSW 16.1 mph - N/A Rain Rain
5:50 PM 58 °F 57 °F 97% 29.99 in 0 mi SSW 19.6 mph - - Rain Heavy Rain
5:50 PM 57.2 °F 57.2 °F 100% 29.98 in 0.2 mi SSW 19.6 mph - N/A Rain Rain
6:50 PM 57.2 °F 57.2 °F 100% 29.98 in 0.1 mi SSW 18.4 mph - N/A Rain Light Rain
7:50 PM 57.2 °F 57.2 °F 100% 29.98 in 0.1 mi SSW 19.6 mph - N/A Rain Rain
8:50 PM 58 °F 58 °F 98% 29.97 in 0 mi SSW 20.7 mph - - Rain Heavy Rain
8:50 PM 57.2 °F 57.2 °F 100% 29.95 in 0.1 mi SSW 20.7 mph - N/A Rain Rain
9:50 PM 57.2 °F 57.2 °F 100% 29.95 in 0.1 mi SSW 18.4 mph - N/A Rain Light Rain
10:50 PM 57.2 °F 57.2 °F 100% 29.92 in 0.1 mi SSW 18.4 mph - N/A Rain Light Rain